Salida, CO

3:00 PM MDT on July 22, 2017 (GMT -0600)
Salida

Weather History for KANK - March, 2013

Change the Weather History Date:

Saturday, March 30, 2013

  Actual Average (KGUC) Record (KGUC)
Temperature  
Mean Temperature 46 °F -  
Max Temperature 62 °F 47 °F 62 °F (2012)
Min Temperature 30 °F 20 °F 10 °F (2016)
Degree Days  
Heating Degree Days 19    
Moisture  
Dew Point 21 °F    
Average Humidity 42    
Maximum Humidity 75    
Minimum Humidity 16    
Precipitation  
Precipitation 0.00 in - - ()
Sea Level Pressure  
Sea Level Pressure 30.26 in    
Wind  
Wind Speed 6 mph (WNW)    
Max Wind Speed 21 mph    
Max Gust Speed 34 mph    
Visibility 10 miles    
Events      
Averages and records for this station are not official NWS values.
T = Trace of Precipitation, MM = Missing Value Source: NWS Daily Summary

Daily Weather History Graph

Daily Weather History Graph

Search for Another Location

Airport or City:

Trip Planner

Search our weather history database for the weather conditions in past years. The results will help you decide how hot, cold, wet, or windy it might be!

Date:

Astronomy

Mar. 30, 2013 Rise Set
Actual Time 6:51 AM MDT 7:25 PM MDT
Civil Twilight 6:25 AM MDT 7:52 PM MDT
Nautical Twilight 5:53 AM MDT 8:24 PM MDT
Astronomical Twilight 5:21 AM MDT 8:56 PM MDT
Moon 11:32 PM MDT (3/30) 8:51 AM MDT (3/30)
Length of Visible Light 13h 27m
Length of Day
12h 34m
Waning Gibbous, 86% of the Moon is Illuminated
Mar 30
Waning Gibbous
Apr 2
Last Quarter
Apr 10
New
Apr 18
First Quarter
Apr 25
Full

Hourly Weather History & Observations

Time (MDT) Temp. Windchill Dew Point Humidity Pressure Visibility Wind Dir Wind Speed Gust Speed Precip Events Conditions
12:15 AM 39.0 °F 34.0 °F 23.0 °F 53% 30.32 in 10.0 mi WNW 6.9 mph - N/A   Clear
12:35 AM 40.3 °F 35.5 °F 23.0 °F 50% 30.32 in 10.0 mi WNW 6.9 mph - N/A   Clear
12:55 AM 39.0 °F 36.8 °F 23.0 °F 53% 30.32 in 10.0 mi NW 3.5 mph - N/A   Clear
1:15 AM 37.0 °F - 23.2 °F 57% 30.32 in 10.0 mi Calm Calm - N/A   Scattered Clouds
1:35 AM 35.8 °F - 22.8 °F 59% 30.31 in 10.0 mi Calm Calm - N/A   Scattered Clouds
1:55 AM 35.1 °F - 23.0 °F 61% 30.31 in 10.0 mi Calm Calm - N/A   Clear
2:15 AM 35.4 °F - 23.4 °F 62% 30.31 in 10.0 mi Calm Calm - N/A   Clear
2:35 AM 35.2 °F 30.3 °F 23.5 °F 62% 30.31 in 10.0 mi WSW 5.8 mph - N/A   Scattered Clouds
2:55 AM 34.9 °F 29.0 °F 23.5 °F 63% 30.31 in 10.0 mi West 6.9 mph - N/A   Clear
3:15 AM 34.7 °F - 23.4 °F 63% 30.30 in 10.0 mi Calm Calm - N/A   Clear
3:35 AM 34.3 °F 31.4 °F 23.5 °F 65% 30.30 in 10.0 mi WNW 3.5 mph - N/A   Clear
3:55 AM 34.2 °F - 23.7 °F 66% 30.30 in 10.0 mi Calm Calm - N/A   Clear
4:15 AM 33.3 °F - 23.7 °F 68% 30.30 in 10.0 mi Calm Calm - N/A   Clear
4:35 AM 33.1 °F 30.0 °F 23.5 °F 68% 30.30 in 10.0 mi NW 3.5 mph - N/A   Clear
4:55 AM 31.6 °F - 23.4 °F 71% 30.30 in 10.0 mi Calm Calm - N/A   Clear
5:15 AM 31.8 °F 28.5 °F 23.9 °F 73% 30.30 in 10.0 mi NNW 3.5 mph - N/A   Clear
5:35 AM 32.0 °F 28.7 °F 23.7 °F 71% 30.30 in 10.0 mi NNW 3.5 mph - N/A   Clear
5:55 AM 31.1 °F - 23.7 °F 74% 30.30 in 10.0 mi Calm Calm - N/A   Clear
6:15 AM 31.6 °F 28.3 °F 23.5 °F 72% 30.30 in 10.0 mi NNW 3.5 mph - N/A   Scattered Clouds
6:35 AM 30.9 °F - 23.7 °F 75% 30.30 in 10.0 mi Calm Calm - N/A   Clear
6:55 AM 32.5 °F 29.3 °F 24.3 °F 72% 30.30 in 10.0 mi North 3.5 mph - N/A   Scattered Clouds
7:15 AM 32.2 °F - 24.6 °F 74% 30.30 in 10.0 mi Calm Calm - N/A   Scattered Clouds
7:35 AM 32.9 °F 28.5 °F 25.0 °F 73% 30.30 in 10.0 mi NNW 4.6 mph - N/A   Scattered Clouds
7:55 AM 35.8 °F 33.0 °F 25.5 °F 66% 30.31 in 10.0 mi North 3.5 mph - N/A   Clear
8:15 AM 36.0 °F 33.3 °F 25.7 °F 66% 30.30 in 10.0 mi North 3.5 mph - N/A   Clear
8:35 AM 37.4 °F 34.9 °F 25.7 °F 63% 30.30 in 10.0 mi North 3.5 mph - N/A   Clear
8:55 AM 39.2 °F 35.9 °F 25.7 °F 58% 30.30 in 10.0 mi NNW 4.6 mph - N/A   Clear
9:15 AM 41.4 °F 38.4 °F 25.7 °F 54% 30.29 in 10.0 mi North 4.6 mph - N/A   Clear
9:35 AM 45.0 °F 41.8 °F 26.2 °F 48% 30.28 in 10.0 mi North 5.8 mph - N/A   Clear
9:55 AM 46.6 °F - 26.2 °F 45% 30.27 in 10.0 mi NNW 5.8 mph - N/A   Scattered Clouds
10:15 AM 50.4 °F - 25.5 °F 38% 30.27 in 10.0 mi North 3.5 mph - N/A   Scattered Clouds
10:35 AM 54.5 °F - 25.0 °F 32% 30.25 in 10.0 mi NNE 11.5 mph - N/A   Mostly Cloudy
10:55 AM 54.7 °F - 22.8 °F 29% 30.25 in 10.0 mi WNW 6.9 mph - N/A   Overcast
11:15 AM 54.5 °F - 22.1 °F 28% 30.25 in 10.0 mi NNE 5.8 mph - N/A   Mostly Cloudy
11:35 AM 58.6 °F - 19.6 °F 22% 30.25 in 10.0 mi WSW 16.1 mph 25.3 mph N/A   Mostly Cloudy
11:55 AM 57.4 °F - 18.5 °F 22% 30.24 in 10.0 mi West 12.7 mph 18.4 mph N/A   Scattered Clouds
12:15 PM 60.1 °F - 18.7 °F 20% 30.23 in 10.0 mi WSW 20.7 mph 32.2 mph N/A   Scattered Clouds
12:35 PM 59.7 °F - 17.8 °F 20% 30.23 in 10.0 mi WSW 15.0 mph 34.5 mph N/A   Clear
12:55 PM 61.9 °F - 17.6 °F 18% 30.22 in 10.0 mi SW 19.6 mph 29.9 mph N/A   Clear
1:15 PM 62.1 °F - 17.2 °F 18% 30.22 in 10.0 mi WSW 15.0 mph 25.3 mph N/A   Clear
1:35 PM 60.4 °F - 15.8 °F 18% 30.22 in 10.0 mi West 16.1 mph 26.5 mph N/A   Scattered Clouds
1:55 PM 61.5 °F - 15.6 °F 17% 30.21 in 10.0 mi West 16.1 mph 27.6 mph N/A   Mostly Cloudy
2:15 PM 62.4 °F - 15.4 °F 16% 30.21 in 10.0 mi West 19.6 mph 26.5 mph N/A   Overcast
2:35 PM 58.8 °F - 15.8 °F 19% 30.20 in 10.0 mi West 13.8 mph 20.7 mph N/A   Mostly Cloudy
2:55 PM 60.4 °F - 15.3 °F 17% 30.20 in 10.0 mi WNW 15.0 mph 24.2 mph N/A   Scattered Clouds
3:15 PM 58.8 °F - 15.3 °F 18% 30.19 in 10.0 mi WNW 10.4 mph - N/A   Scattered Clouds
3:35 PM 60.3 °F - 14.5 °F 17% 30.19 in 10.0 mi WNW 9.2 mph - N/A   Mostly Cloudy
3:55 PM 60.1 °F - 14.2 °F 17% 30.19 in 10.0 mi West 17.3 mph 23.0 mph N/A   Mostly Cloudy
4:15 PM 60.6 °F - 14.0 °F 16% 30.19 in 10.0 mi West 11.5 mph 25.3 mph N/A   Mostly Cloudy
4:35 PM 59.0 °F - 13.6 °F 17% 30.19 in 10.0 mi NW 11.5 mph - N/A   Scattered Clouds
4:55 PM 58.6 °F - 14.5 °F 18% 30.18 in 10.0 mi NNW 17.3 mph 23.0 mph N/A   Mostly Cloudy
5:15 PM 57.2 °F - 16.5 °F 20% 30.19 in 10.0 mi NW 16.1 mph 29.9 mph N/A   Mostly Cloudy
5:55 PM 56.3 °F - 17.6 °F 22% 30.19 in 10.0 mi NNW 12.7 mph - N/A   Scattered Clouds
6:15 PM 56.8 °F - 15.8 °F 20% 30.19 in 10.0 mi WNW 12.7 mph 18.4 mph N/A   Scattered Clouds
6:35 PM 57.0 °F - 14.9 °F 19% 30.19 in 10.0 mi West 13.8 mph 20.7 mph N/A   Clear
6:55 PM 54.3 °F - 15.8 °F 22% 30.20 in 10.0 mi West 11.5 mph - N/A   Clear
7:15 PM 53.8 °F - 14.7 °F 21% 30.20 in 10.0 mi West 11.5 mph - N/A   Clear
7:35 PM 52.9 °F - 15.3 °F 23% 30.21 in 10.0 mi West 9.2 mph - N/A   Clear
7:55 PM 50.4 °F - 16.5 °F 26% 30.22 in 10.0 mi West 9.2 mph - N/A   Clear
8:15 PM 48.7 °F - 17.1 °F 28% 30.22 in 10.0 mi West 11.5 mph - N/A   Clear
8:35 PM 47.3 °F - 17.6 °F 31% 30.23 in 10.0 mi West 11.5 mph - N/A   Clear
8:55 PM 45.7 °F 40.6 °F 18.3 °F 34% 30.24 in 10.0 mi West 10.4 mph - N/A   Clear
9:15 PM 46.4 °F 42.9 °F 18.3 °F 33% 30.25 in 10.0 mi West 6.9 mph - N/A   Clear
9:35 PM 45.5 °F 40.8 °F 19.0 °F 35% 30.26 in 10.0 mi West 9.2 mph - N/A   Clear
9:55 PM 46.8 °F - 18.1 °F 32% 30.27 in 10.0 mi NNW 10.4 mph - N/A   Clear
10:15 PM 46.9 °F - 21.2 °F 36% 30.29 in 10.0 mi North 9.2 mph - N/A   Scattered Clouds
10:35 PM 46.2 °F - 23.9 °F 42% 30.29 in 10.0 mi Calm Calm - N/A   Scattered Clouds
10:55 PM 45.1 °F - 25.7 °F 47% 30.30 in 10.0 mi Calm Calm - N/A   Scattered Clouds
11:15 PM 43.2 °F - 24.8 °F 48% 30.29 in 10.0 mi Calm Calm - N/A   Clear
11:35 PM 40.6 °F 37.5 °F 24.1 °F 52% 30.29 in 10.0 mi WSW 4.6 mph - N/A   Clear
11:55 PM 39.9 °F 37.8 °F 23.0 °F 51% 30.29 in 10.0 mi West 3.5 mph - N/A   Clear